Miscellaneous Local Product
Issued by NWS North Platte, NE

Current Version | Previous Version | Text Only | Print | Product List | Glossary On
Versions: 1 2 3 4 5 6 7 8 9 10 11 12 13 14 15 16 17 18 19 20 21 22 23 24 25 26 27 28 29 30 31 32 33 34 35 36 37 38 39 40 41 42 43 44 45 46 47 48 49 50
208
AXUS43 KLBF 191410
MISLBF


WESTERN AND NORTH CENTRAL NEBRASKA HOURLY WEATHER ROUNDUP
NATIONAL WEATHER SERVICE NORTH PLATTE NE
900 AM CDT SAT AUG 19 2017

NOTE: "FAIR" INDICATES FEW OR NO CLOUDS BELOW 12,000 FEET WITH NO
SIGNIFICANT WEATHER AND/OR OBSTRUCTIONS TO VISIBILITY.

NOTE: STATIONS NOT REPORTING VARIABLES SUCH AS SKY/WEATHER OR
PRESSURE ARE PROVIDED BY RAWS AND APRS NETWORKS AND ARE NOT UNDER
NATIONAL WEATHER SERVICE QUALITY CONTROL.

...OBSERVATIONS IN AND NEAR THE EASTERN PANHANDLE OF NEBRASKA...

CITY           SKY/WX    TMP DP  RH WIND       PRES   REMARKS
PINE RIDGE     SUNNY     68  55  63 S16       29.91F
GORDON         FAIR      71  56  59 SW9       29.93F
CHADRON        SUNNY     68  52  56 SW7       29.92F
ALLIANCE       SUNNY     69  57  65 S8        29.96S
SIDNEY         SUNNY     73  57  57 SW15      30.03F
$$

...OBSERVATIONS IN NORTHERN NEBRASKA AND FAR SOUTHERN SOUTH DAKOTA...

CITY           SKY/WX    TMP DP  RH WIND       PRES   REMARKS
WINNER         FAIR      70  58  65 S9        29.91F
VALENTINE      SUNNY     70  55  59 S10       29.94F
THEDFORD       SUNNY     67  60  78 SE7       29.97F
AINSWORTH      SUNNY     68  58  71 S16       29.96S
O`NEILL        SUNNY     65  60  82 S8        29.98S
ORD            SUNNY     64  58  80 CALM      29.98S
BROKEN BOW     SUNNY     67  61  81 SE5       29.99F
VALENTINE NWR    N/A     62  58  86 S10         N/A
HALSEY           N/A     64  57  79 S5          N/A
BUTTE            N/A     63  58  84 SE5         N/A
CHAMBERS         N/A     70  60  70 SW5         N/A
EWING            N/A     64  60  87 S3          N/A
$$

...OBSERVATIONS IN SOUTHWEST NEBRASKA AND FAR NORTHEAST COLORADO...

CITY           SKY/WX    TMP DP  RH WIND       PRES   REMARKS
HOLYOKE        FAIR      64  59  82 CALM      30.03S
IMPERIAL       SUNNY     68  57  68 SW6       30.01S
OGALLALA       SUNNY     67  59  76 W5        30.00S
NORTH PLATTE   SUNNY     64  61  90 E6        29.99F
MCCOOK         SUNNY     66  59  78 CALM      29.99S
LEXINGTON      SUNNY     68  62  82 SE6       29.99F
STAPLETON        N/A     67  60  79 CALM        N/A
GOTHENBURG       N/A     60  56  86 CALM        N/A
CALLAWAY         N/A     60  59  96 S6          N/A
$$

...OBSERVATIONS IN CENTRAL LINCOLN COUNTY AREA...

CITY           SKY/WX    TMP DP  RH WIND       PRES   REMARKS
N.P. AIRPORT   SUNNY     64  61  90 E6        29.99F
N.P. DOWNTOWN    N/A     67  60  78 CALM        N/A
N.P. SOUTHEAST   N/A     63  58  83 CALM        N/A
N.P. HILLCREST   N/A     67  60  78 SE3         N/A
$$

...SOME OBSERVATIONS FROM AROUND THE REGION...

CITY           SKY/WX    TMP DP  RH WIND       PRES   REMARKS
DENVER         MOSUNNY   68  45  43 W6        30.12S
LIMON          CLOUDY    62  58  86 CALM      30.15R
ASPEN          CLOUDY    57  34  41 S3        30.34S
LARAMIE        SUNNY     60  38  43 SW8       30.24S
CASPER         SUNNY     67  37  33 W6        30.08R
CHEYENNE       SUNNY     67  38  34 W10       30.15S
SCOTTSBLUFF    SUNNY     68  55  63 CALM      29.98S
GRAND ISLAND   SUNNY     67  62  84 SE5       30.00R
OMAHA          SUNNY     66  60  81 CALM      29.99R
SIOUX FALLS    FOG       62  60  93 E7        29.98S VSB 3/4
PIERRE         SUNNY     66  57  72 SE12      29.86F
RAPID CITY     SUNNY     66  51  58 CALM      29.88F
BISMARCK       SUNNY     65  60  84 SE9       29.82F
KANSAS CITY    SUNNY     75  69  81 CALM      29.97R
HILL CITY      SUNNY     67  62  84 E5        30.01R
WICHITA        MOSUNNY   80  71  74 S7        29.97S
DODGE CITY     SUNNY     75  65  70 S5        30.04R
OKLAHOMA CITY  MOSUNNY   78  73  84 SW8       30.01S
DALLAS         MOSUNNY   84  73  69 SW12      29.99R HX  90
AMARILLO       SUNNY     73  65  75 SW13      30.13R
$$




USA.gov is the U.S. government's official web portal to all federal, state and local government web resources and services.